TimeBST,TemperatureF,Dew PointF,Humidity,Sea Level PressureIn,VisibilityMPH,Wind Direction,Wind SpeedMPH,Gust SpeedMPH,PrecipitationIn,Events,Conditions,WindDirDegrees,DateUTC
12:20 AM,55.4,53.6,94,30.01,2.5,East,8.1,-,N/A,,Mostly Cloudy,80,2012-10-24 23:20:00
12:50 AM,55,53,90,30.00,2,ENE,10.4,,,,Light Haze,70,2012-10-24 23:50:00
12:50 AM,55.4,53.6,94,29.98,2.2,ENE,10.4,-,N/A,,Mostly Cloudy,70,2012-10-24 23:50:00
1:20 AM,55.4,53.6,94,29.98,2.2,ENE,8.1,-,N/A,,Mostly Cloudy,70,2012-10-25 00:20:00
1:50 AM,55.4,53.6,94,29.98,1.9,ENE,9.2,-,N/A,,Mostly Cloudy,70,2012-10-25 00:50:00
2:20 AM,55.4,53.6,94,29.98,2.2,ENE,9.2,-,N/A,,Mostly Cloudy,70,2012-10-25 01:20:00
3:50 AM,55,53,92,29.98,2,ENE,9.2,,,,Light Haze,70,2012-10-25 02:50:00
4:50 AM,55.4,53.6,94,29.95,2.2,ENE,10.4,-,N/A,,Scattered Clouds,70,2012-10-25 03:50:00
5:20 AM,55.4,53.6,94,29.95,2.5,ENE,11.5,-,N/A,,Partly Cloudy,70,2012-10-25 04:20:00
5:50 AM,55.4,53.6,94,29.95,2.2,East,10.4,-,N/A,,Mist,80,2012-10-25 04:50:00
6:20 AM,53.6,53.6,100,29.95,2.2,East,9.2,-,N/A,,Mist,80,2012-10-25 05:20:00
6:50 AM,54,53,95,29.96,3,ENE,8.1,,,,Mist,70,2012-10-25 05:50:00
6:50 AM,53.6,51.8,94,29.95,3.1,East,9.2,-,N/A,,Mist,80,2012-10-25 05:50:00
7:20 AM,53.6,53.6,100,29.95,2.8,ENE,8.1,-,N/A,,Mostly Cloudy,60,2012-10-25 06:20:00
7:50 AM,55.4,53.6,94,29.95,2.5,ENE,9.2,-,N/A,,Mostly Cloudy,70,2012-10-25 06:50:00
8:20 AM,55.4,53.6,94,29.95,3.1,ENE,6.9,-,N/A,,Scattered Clouds,70,2012-10-25 07:20:00
8:50 AM,57.2,53.6,88,29.95,4.3,ENE,6.9,-,N/A,,Mostly Cloudy,70,2012-10-25 07:50:00
9:20 AM,57.2,55.4,94,29.95,5.0,ENE,8.1,-,N/A,,Mostly Cloudy,70,2012-10-25 08:20:00
9:50 AM,58,54,84,29.97,9,ENE,13.8,,,,Overcast,70,2012-10-25 08:50:00
9:50 AM,57.2,55.4,94,29.95,6.2,ENE,12.7,-,N/A,,Mostly Cloudy,60,2012-10-25 08:50:00
10:20 AM,57.2,55.4,94,29.95,6.2,East,11.5,-,N/A,,Mostly Cloudy,80,2012-10-25 09:20:00
10:50 AM,59.0,55.4,88,29.95,6.2,East,13.8,-,N/A,,Mostly Cloudy,80,2012-10-25 09:50:00
11:20 AM,59.0,55.4,88,29.95,6.2,East,12.7,-,N/A,,Mostly Cloudy,80,2012-10-25 10:20:00
11:50 AM,59.0,55.4,88,29.95,6.2,East,11.5,-,N/A,,Mostly Cloudy,80,2012-10-25 10:50:00
12:50 PM,59,55,82,29.94,7,East,12.7,,,,Overcast,80,2012-10-25 11:50:00
12:50 PM,59.0,55.4,88,29.92,6.2,East,12.7,-,N/A,,Mostly Cloudy,80,2012-10-25 11:50:00
1:20 PM,59.0,55.4,88,29.92,6.2,East,12.7,-,N/A,,Mostly Cloudy,80,2012-10-25 12:20:00
1:50 PM,59.0,55.4,88,29.92,6.2,ENE,13.8,-,N/A,,Mostly Cloudy,70,2012-10-25 12:50:00
2:20 PM,59.0,55.4,88,29.92,6.2,East,11.5,-,N/A,,Mostly Cloudy,80,2012-10-25 13:20:00
2:50 PM,59.0,55.4,88,29.92,6.2,East,12.7,-,N/A,,Mostly Cloudy,80,2012-10-25 13:50:00
3:20 PM,59.0,55.4,88,29.89,6.2,ENE,12.7,-,N/A,,Mostly Cloudy,70,2012-10-25 14:20:00
3:50 PM,57,54,88,29.91,9,ENE,15.0,,,,Overcast,60,2012-10-25 14:50:00
3:50 PM,57.2,53.6,88,29.89,6.2,ENE,13.8,-,N/A,,Mostly Cloudy,60,2012-10-25 14:50:00
4:20 PM,57.2,53.6,88,29.89,6.2,NE,12.7,-,N/A,,Mostly Cloudy,50,2012-10-25 15:20:00
4:50 PM,55.4,53.6,94,29.89,6.2,ENE,12.7,-,N/A,,Mostly Cloudy,60,2012-10-25 15:50:00
5:50 PM,55.4,51.8,88,29.89,6.2,ENE,10.4,-,N/A,,Mostly Cloudy,60,2012-10-25 16:50:00
6:20 PM,55.4,51.8,88,29.92,6.2,ENE,12.7,-,N/A,,Mostly Cloudy,60,2012-10-25 17:20:00
6:50 PM,55,51,82,29.93,11,ENE,16.1,,,,Overcast,70,2012-10-25 17:50:00
6:50 PM,55.4,51.8,88,29.92,6.2,ENE,15.0,-,N/A,,Mostly Cloudy,70,2012-10-25 17:50:00
7:20 PM,55.4,50.0,82,29.92,6.2,ENE,13.8,-,N/A,,Mostly Cloudy,70,2012-10-25 18:20:00
7:50 PM,53.6,48.2,82,29.92,6.2,ENE,15.0,-,N/A,,Overcast,60,2012-10-25 18:50:00
8:20 PM,53.6,48.2,82,29.92,6.2,ENE,15.0,-,N/A,,Overcast,70,2012-10-25 19:20:00
8:50 PM,53.6,48.2,82,29.92,6.2,ENE,15.0,-,N/A,,Overcast,70,2012-10-25 19:50:00
9:20 PM,53.6,48.2,82,29.92,6.2,ENE,15.0,-,N/A,,Overcast,60,2012-10-25 20:20:00
9:50 PM,53,48,78,29.94,14,ENE,15.0,,,,Overcast,70,2012-10-25 20:50:00
9:50 PM,53.6,48.2,82,29.92,6.2,ENE,13.8,-,N/A,,Overcast,70,2012-10-25 20:50:00
10:20 PM,53.6,48.2,82,29.92,6.2,ENE,15.0,-,N/A,,Overcast,70,2012-10-25 21:20:00
10:50 PM,51.8,48.2,88,29.92,6.2,ENE,17.3,-,N/A,,Overcast,60,2012-10-25 21:50:00
11:20 PM,51.8,46.4,82,29.92,6.2,ENE,16.1,-,N/A,,Overcast,60,2012-10-25 22:20:00